Location: Coed Ely
(51.5661°N, 3.4150°W)
Time: 03:03:38
(UTC+00:00)

Meteor 2-1 Rocket - Pass Details

Date: 28 January 2021
Orbit: 827 x 910 km, 81.3° (Epoch: 24 February)

Event Time Altitude Azimuth Distance (km) Brightness Sun altitude
Rises 17:44:33 0° 346° (NNW) 3,403 7.3 -7.7°
Reaches altitude 10° 17:46:59 10° 346° (NNW) 2,457 6.6 -8.1°
Maximum altitude 17:52:32 84° 260° (W) 841 4.3 -8.9°
Drops below altitude 10° 17:58:01 10° 172° (S) 2,426 6.7 -9.7°
Sets 18:00:24 0° 172° (S) 3,357 7.4 -10.0°
